Location: Unspecified
(0.0000°N, 0.0000°E)
Time: 21:56:32
(UTC+00:00)

Hubble Space Telescope - Pass Details

Date: 23 May 2017
Orbit: 537 x 541 km, 28.5° (Epoch: 17 October)

Event Time Altitude Azimuth Distance (km) Brightness Sun altitude
Rises 05:15:50 0° 333° (NNW) 2,672 4.3 -9.6°
Reaches altitude 10° 05:19:48 10° 11° (N) 1,783 3.9 -8.6°
Maximum altitude 05:20:55 11° 27° (NNE) 1,725 4.1 -8.4°
Drops below altitude 10° 05:22:02 10° 43° (NE) 1,783 4.6 -8.1°
Sets 05:25:59 0° 80° (E) 2,675 6.4 -7.2°
